FENGYUN 1C DEB

Satellite information

Favourite Embed

Satellite Type and Status

DEBRISIN ORBIT

Key statistics

Satellite FENGYUN 1C DEB at a glance.

Uptime

9497

Days in orbit

Revolutions

≈ 14.5

Per day

Orbit

SSO

Sun Synchronous Orbit

Inclination

98.7

Latest

Satellite identification and parameters

Extended collection of information and parameters for FENGYUN 1C DEB.

Object identification

Identified? True

Debris? True

Object name: FENGYUN 1C DEB

International designator: 1999-025DLY

Object number (NORAD): 35144

Object ID (CCSDS): 35144

Country: PEOPLES REPUBLIC OF CHINA (PRC)

Current information (Y/N): Y

RCS size: SMALL

Orbital parameters

Period: 99.056 minutes

Inclination: 98.6899 deg

SMA: 7091.656 km

Apoapsis: 733.858 km

Periapsis: 693.184 km

RAAN: 227.6959 deg

Eccentricy: 0.0028677

Argument of periapsis: 331.9248 deg

Mean anomaly: 28.0399 deg

Mean motion: 14.53721718 rev/day

Mean motion (dot): 0.00015974 rev/day2

B* drag term: 0.0037949 1/REarth

Two-line elements (TLE)

Creation date: May 8, 2025, 6:46 a.m.

Reference frame: TEME

Reference center: EARTH

Epoch: May 1, 2025, 5:58 p.m. UTC

TLE line 0: 0 FENGYUN 1C DEB

TLE line 1: 1 35144U 99025DLY 25121.74902499 .00015974 00000-0 37949-2 0 9997

TLE line 2: 2 35144 98.6899 227.6959 0028677 331.9248 28.0399 14.53721718848378

Live tracking on map

Real-time ground track for satellite FENGYUN 1C DEB.

In-orbit conjunctions

A list of the most updated potential collisions computed for object FENGYUN 1C DEB.

Target Orbit TCA Probability of collision Miss distance Type
CZ-6A DEB LEO 2025-03-03 01:46:57 0.0001140444 581.0 (m) DEBRIS

Associated space launch

Chinese polar orbiting meteorological satellite

FENGYUN 1C DEB was lifted into orbit during the mission ‘Long March 4B | Feng Yun 1C’, on board a Long March 4B space rocket.

The launch took place on May 10, 1999, 1:33 a.m. from Launch Complex 7.

For more information about the launch, click the button.

Launch to space Long March 4B | Feng Yun 1C
Long March 4B | Feng Yun 1C

Agency: N/A

Status: Launch Successful

Launch date: May 10, 1999, 1:33 a.m. UTC

Rocket: Long March 4B

Launch pad: Launch Complex 7

Location: Taiyuan Satellite Launch Center, People's Republic of China

...

Latest news about this satellite

There are no fresh news available about this satellite. Check back as we update our databases every day.


Newsletter sign-up

Weekly statistics, charts and insights to help you stay on top of the space industry.